Current Version              Previous Version:    01  02  03  04  05  06  07  08  09  10  11  12  13  14  15  16  17  18  19  20  21  22  23  24  25  26  27  28  29  30  
   31  32  33  34  35  36  37  38  39  40  41  42  43  44  45  46  47  48  49  50  51  52  53  54  55  56  57  58  59  60  

[Printable]
777
ASUS44 KFWD 240015
RWRTX
NORTH TEXAS HOURLY WEATHER ROUNDUP
NATIONAL WEATHER SERVICE FORT WORTH TX
600 PM CST SUN NOV 23 2014

NOTE: "FAIR" INDICATES FEW OR NO CLOUDS BELOW 12,000 FEET WITH NO
SIGNIFICANT WEATHER AND/OR OBSTRUCTIONS TO VISIBILITY.

TXZ118-119-240100-
DALLAS/FORT WORTH METROPLEX

CITY           SKY/WX    TMP DP  RH WIND       PRES   REMARKS
DFW AIRPORT    PTCLDY    63  43  48 NW25G31   29.54R
6HR MIN TEMP:  63; 6HR MAX TEMP:  77;

DALLAS LOVE    CLEAR     65  44  46 NW23G33   29.54R
6HR MIN TEMP:  65; 6HR MAX TEMP:  77;

FTW MEACHAM    CLEAR     64  43  46 NW26G33   29.56R
6HR MIN TEMP:  64; 6HR MAX TEMP:  78;

DAL-EXECUTIVE  CLEAR     67  43  41 NW21G29   29.53R
6HR MIN TEMP:  67; 6HR MAX TEMP:  80;

FTW-ALLIANCE   CLEAR     61  42  49 NW31G38   29.56R
6HR MIN TEMP:  61; 6HR MAX TEMP:  76;

FTW-SPINKS     CLEAR     66  43  42 W20G31    29.58R
ARLINGTON      CLEAR     67  42  40 W21G30    29.54R
6HR MIN TEMP:  67; 6HR MAX TEMP:  79;

ADDISON        CLEAR     64  41  42 W21G36    29.53R
MESQUITE       CLEAR     66  43  42 W26G32    29.52R
LANCASTER      CLEAR     66  42  40 NW23G31   29.54R
6HR MIN TEMP:  66; 6HR MAX TEMP:  77;

$$

TXZ091>094-102>105-117-120-121-131>134-240100-
NORTH CENTRAL TEXAS

CITY           SKY/WX    TMP DP  RH WIND       PRES   REMARKS
SHRMAN/DENISON CLEAR     61  50  65 W24G38    29.51R
6HR MIN TEMP:  61; 6HR MAX TEMP:  75;

GAINESVILLE    CLEAR     55  43  62 W23G38    29.58R
6HR MIN TEMP:  55; 6HR MAX TEMP:  73;

BOWIE          MOCLDY    55  42  62 NW18G32   29.61R
6HR MIN TEMP:  54; 6HR MAX TEMP:  72;

BRIDGEPORT     CLEAR     57  43  57 NW24G35   29.63R
6HR MIN TEMP:  57; 6HR MAX TEMP:  75;

DECATUR        CLEAR     56  40  56 NW18G39   29.60R
6HR MIN TEMP:  56; 6HR MAX TEMP:  73;

DENTON         CLEAR     60  43  53 NW24G37   29.56R
6HR MIN TEMP:  60; 6HR MAX TEMP:  76;

MCKINNEY       CLEAR     63  45  51 NW28G38   29.52R
6HR MIN TEMP:  63; 6HR MAX TEMP:  76;

GREENVILLE     CLEAR     64  41  42 W23G33    29.51R
ROCKWALL       CLEAR     65  44  46 W23G36    29.52R
6HR MIN TEMP:  65; 6HR MAX TEMP:  76;

TERRELL        CLEAR     69  42  37 W23G32    29.51R
6HR MIN TEMP:  69; 6HR MAX TEMP:  78;

WAXAHACHIE     CLEAR     67  42  39 W15G29    29.54R
6HR MIN TEMP:  67; 6HR MAX TEMP:  77;

CLEBURNE       CLEAR     64  41  42 W18G25    29.58R
GRANBURY       CLEAR     65  41  40 NW15G25   29.60R
6HR MIN TEMP:  65; 6HR MAX TEMP:  77;

$$

TXZ083>090-098>101-113>116-127>130-139>142-154-155-240100-
WESTERN NORTH TEXAS

CITY           SKY/WX    TMP DP  RH WIND       PRES   REMARKS
WICHITA FALLS  CLOUDY    53  38  56 NW28G41   29.66R
6HR MIN TEMP:  53; 6HR MAX TEMP:  70;

WF-KICKAPOO    CLOUDY    54  37  51 NW28G38   29.67R
6HR MIN TEMP:  54; 6HR MAX TEMP:  73;

VERNON         MOCLDY    50  37  62 N21G32    29.73R
ABILENE        CLEAR     60  36  40 N18G28    29.69R
6HR MIN TEMP:  60; 6HR MAX TEMP:  75;

ABILENE-DYESS  CLEAR     59  35  41 N20G30    29.69R
6HR MIN TEMP:  59; 6HR MAX TEMP:  74;

BRECKENRIDGE   CLEAR     60  39  46 N20G25    29.67R
6HR MIN TEMP:  60; 6HR MAX TEMP:  76;

GRAHAM         CLEAR     56  40  54 NW16G29   29.65R
6HR MIN TEMP:  56; 6HR MAX TEMP:  74;

MINERAL WELLS  CLEAR    N/A N/A N/A NW17G33   29.60R
                                      6HR PCP: TRACE;

STEPHENVILLE   CLEAR     64  38  38 NW13      29.63R
6HR MIN TEMP:  64; 6HR MAX TEMP:  76;

COMANCHE       CLEAR     64  40  41 NW13G23   29.61R
6HR MIN TEMP:  64; 6HR MAX TEMP:  74;

BROWNWOOD      PTCLDY    64  37  36 N10G17    29.64R
COLEMAN        CLEAR     62  42  48 N13       29.65R
6HR MIN TEMP:  62; 6HR MAX TEMP:  74; 6HR PCP:  0.01;

BRADY          CLEAR     64  34  32 NW10      29.63R
$$

TXZ143>147-156>162-174-175-240100-
CENTRAL TEXAS

CITY           SKY/WX    TMP DP  RH WIND       PRES   REMARKS
WACO           CLEAR     68  40  35 W9        29.53R
6HR MIN TEMP:  68; 6HR MAX TEMP:  79;

WACO-MCGREGOR  CLEAR     66  43  42 W7        29.55R
6HR MIN TEMP:  66; 6HR MAX TEMP:  79;

HILLSBORO      CLEAR     66  39  36 NW10      29.56R
6HR MIN TEMP:  66; 6HR MAX TEMP:  76;

CORSICANA      CLEAR     67  42  40 SW7       29.52R
6HR MIN TEMP:  67; 6HR MAX TEMP:  78;

MEXIA          CLEAR     70  42  36 SW5       29.51R
6HR MIN TEMP:  69; 6HR MAX TEMP:  77;

HEARNE         CLEAR     70  46  42 S8        29.55R
6HR MIN TEMP:  69; 6HR MAX TEMP:  80;

CAMERON        CLEAR     73  42  32 W8        29.55R
6HR MIN TEMP:  73; 6HR MAX TEMP:  81;

TEMPLE         CLEAR     70  37  30 W12       29.55R
6HR MIN TEMP:  70; 6HR MAX TEMP:  79;

KILLEEN        CLEAR     72  34  25 W10       29.57R
6HR MIN TEMP:  71; 6HR MAX TEMP:  77;

KILLEEN-SKYLRK CLEAR     72  36  26 W8        29.55R
6HR MIN TEMP:  72; 6HR MAX TEMP:  79;

FORT HOOD      CLEAR     75  36  24 SW10      29.56R
6HR MIN TEMP:  75; 6HR MAX TEMP:  81;

GATESVILLE     CLEAR     68  39  34 W7        29.57R
HAMILTON       CLEAR     66  37  34 NW13G25   29.60R
6HR MIN TEMP:  66; 6HR MAX TEMP:  76;

LAMPASAS       CLEAR     69  39  33 SW3       29.58R
6HR MIN TEMP:  69; 6HR MAX TEMP:  78;

$$

TXZ095>097-106>112-122>126-135>138-148>153-164>167-240100-
EAST TEXAS

CITY           SKY/WX    TMP DP  RH WIND       PRES   REMARKS
PARIS          CLEAR     64  39  39 SW12      29.42R
6HR MIN TEMP:  64; 6HR MAX TEMP:  73;

SULPHUR SPRNGS CLEAR     69  38  31 W20G29    29.47R
6HR MIN TEMP:  67; 6HR MAX TEMP:  74;

MOUNT PLEASANT CLEAR     67  48  50 SW6       29.45R
6HR MIN TEMP:  67; 6HR MAX TEMP:  74;

MINEOLA        CLEAR     70  43  37 SW6       29.47R
TYLER          CLEAR     70  45  40 SW9       29.48R
6HR MIN TEMP:  66; 6HR MAX TEMP:  76;

LONGVIEW       CLEAR     68  47  46 SW9       29.47R
6HR MIN TEMP:  68; 6HR MAX TEMP:  74;

MARSHALL       CLEAR     68  57  66 S7        29.49R
6HR MIN TEMP:  68; 6HR MAX TEMP:  73;

ATHENS         CLEAR     68  41  37 CALM      29.50R
PALESTINE      CLEAR     70  47  44 SW6       29.52R
JACKSONVILLE   CLEAR     69  46  43 SW7       29.53R
HENDERSON      CLEAR     67  48  49 SW3       29.50R
6HR MIN TEMP:  67; 6HR MAX TEMP:  74;

NACOGDOCHES    CLEAR     66  50  55 SW6       29.53R
6HR MIN TEMP:  64; 6HR MAX TEMP:  75;

LUFKIN         CLEAR     70  54  56 SW6       29.53R
6HR MIN TEMP:  69; 6HR MAX TEMP:  79;

$$

SUPPLEMENTAL OBSERVATIONS (CENTRAL)

CITY           SKY/WX    TMP DP  RH WIND       PRES   REMARKS
LAKE TEXOMA      N/A     61  46  59 W28         N/A
CADDO GRASSLND   N/A     64  39  39 W9G32       N/A
PAT MAYSE LAKE   N/A     66  39  37 SW17        N/A
GREENVILLE       N/A     64  41  42 W24G33      N/A
CEDAR HILL       N/A     64  43  45 NW8G17      N/A
ATHENS           N/A     70  39  32 W5          N/A
PALESTINE        N/A     68  45  42 SW1         N/A
LAKE LIMESTONE   N/A     68  43  40 SW6         N/A
MCGREGOR         N/A     68  41  37 W5          N/A
TEMPLE           N/A     72  39  30 W3G12       N/A
$$

SUPPLEMENTAL OBSERVATIONS (WEST)

CITY           SKY/WX    TMP DP  RH WIND       PRES   REMARKS
MILLERS CREEK    N/A     52  32  46 N28G39      N/A
POSSUM KINGDOM   N/A     57  36  44 N20G31      N/A